Location: Newark
(13.9667°S, 33.8167°E)
Time: 00:53:24
(UTC+00:00)

OTV 5 (USA 277) - Visible Passes

Search period start: 21 September 2019 00:00
Search period end: 01 October 2019 00:00
Orbit: 295 x 339 km, 54.5° (Epoch: 08 September)

Date Brightness Start Highest point End Pass type
(mag) Time Alt. Az. Time Alt. Az. Time Alt. Az.
21 Sep ? 17:08:55 10° NW 17:09:29 15° NW 17:09:29 15° NW visible
22 Sep ? 02:49:28 10° S 02:51:28 17° SE 02:53:28 10° E visible
22 Sep ? 17:24:51 10° W 17:25:20 11° WSW 17:25:20 11° WSW visible
23 Sep ? 03:03:09 10° SSW 03:06:01 80° ESE 03:08:51 10° NE visible
23 Sep ? 16:03:50 10° NNW 16:06:20 50° ENE 16:08:51 10° SE visible
24 Sep ? 16:18:39 10° WNW 16:20:49 24° SW 16:23:01 10° S visible
25 Sep ? 02:01:18 31° ESE 02:01:18 31° ESE 02:03:28 10° ENE visible
26 Sep ? 02:17:12 17° N 02:17:12 17° N 02:18:02 10° NNE visible
